Flag for India Weather past 2 weeks in Faridkot, Punjab, India

Now
81 °F

Passing clouds.


Feels Like: 81 °F
Forecast: 76 / 101 °F
Wind: 6 mph from Northwest

Location: Lahore Airport

Current Time: Apr 28, 2015 at 2:42:59 AM

Latest Report: Apr 28, 2015 at 2:25 AM


Visibility: 2 mi

Pressure: 29.74 "Hg

Humidity: 51%

Dew point: 61 °F

Location of FaridkotLocation

Historic Weather in Faridkot — Graph

°F

Faridkot temperature yesterday

Maximum temperature yesterday: 97 °F (at 3:25 PM)
Minimum temperature yesterday: 75 °F (at 4:55 AM)
Average temperature yesterday: 86 °F

Past Weeks' High & Low Weather Summary

 TemperatureHumidityPressure
High104 °F (Apr 24, 3:25 PM)88% (Apr 16, 4:31 AM)30.12 "Hg (Apr 16, 4:31 AM)
Low66 °F (Apr 17, 4:25 AM)12% (Apr 21, 4:25 PM)29.56 "Hg (Apr 19, 6:25 PM)
Average85 °F44%29.78 "Hg
* Reported Apr 13 12:55 AM — Apr 28 1:25 AM, Faridkot, Weather by CustomWeather, © 2015

Note: Actual official high and low records may vary slightly from our data, if they occured in-between our weather recording intervals... More about our weather records

Advertising

Faridkot weather history for previous 24 hours

 ConditionsComfort  
Time TempWeatherWind HumidityBarometerVisibility
1:25 AM
Tue, Apr 28
81 °FPassing clouds.6 mph54%29.71 "Hg2 mi
12:55 AM82 °FPassing clouds.7 mph51%29.74 "Hg2 mi
12:25 AM82 °FPassing clouds.6 mph51%29.74 "Hg2 mi
11:55 PM
Mon, Apr 27
82 °FPassing clouds.7 mph51%29.74 "Hg2 mi
11:25 PM82 °FPassing clouds.5 mph51%29.77 "Hg2 mi
10:55 PM82 °FPassing clouds.6 mph51%29.77 "Hg2 mi
10:25 PM82 °FPassing clouds.6 mph51%29.77 "Hg2 mi
9:55 PM84 °FPassing clouds.8 mph48%29.77 "Hg2 mi
9:30 PM84 °FPassing clouds.10 mph48%29.77 "Hg2 mi
9:00 PM86 °FThundershowers. Passing clouds.12 mph43%29.77 "Hg2 mi
8:25 PM88 °FThundershowers. Passing clouds.10 mph40%29.77 "Hg2 mi
8:00 PM88 °FThundershowers. Partly cloudy.16 mph38%29.74 "Hg1 mi
7:25 PM91 °FPassing clouds.6 mph36%29.71 "Hg2 mi
7:00 PM93 °FScattered clouds.10 mph32%29.71 "Hg2 mi
6:25 PM93 °FScattered clouds.12 mph32%29.71 "Hg2 mi
5:55 PM95 °FScattered clouds.15 mph30%29.71 "Hg2 mi
5:25 PM95 °FScattered clouds.12 mph30%29.71 "Hg2 mi
4:55 PM97 °FScattered clouds.13 mph28%29.71 "Hg2 mi
4:25 PM97 °FScattered clouds.12 mph28%29.71 "Hg2 mi
3:55 PM97 °FHaze.13 mph28%29.71 "Hg2 mi
3:25 PM97 °FHaze.13 mph28%29.71 "Hg2 mi
2:55 PM95 °FHaze.14 mph30%29.71 "Hg2 mi
2:25 PM95 °FHaze.12 mph30%29.74 "Hg2 mi
1:55 PM93 °FHaze.13 mph32%29.74 "Hg2 mi
1:25 PM93 °FHaze.15 mph32%29.74 "Hg2 mi
12:25 PM91 °FHaze.15 mph32%29.77 "Hg2 mi
11:55 AM90 °FHaze.15 mph36%29.77 "Hg2 mi
11:25 AM88 °FHaze.14 mph38%29.77 "Hg2 mi
10:55 AM88 °FHaze.14 mph38%29.80 "Hg2 mi
9:55 AM84 °FHaze.16 mph43%29.80 "Hg3 mi
9:25 AM84 °FClear.16 mph48%29.80 "Hg3 mi
8:55 AM82 °FClear.15 mph51%29.80 "Hg3 mi
8:25 AM81 °FClear.14 mph51%29.80 "Hg3 mi
7:55 AM79 °FClear.15 mph54%29.80 "Hg3 mi
7:25 AM77 °FClear.15 mph57%29.80 "Hg3 mi
6:55 AM75 °FClear.13 mph61%29.80 "Hg3 mi
5:25 AM75 °FPassing clouds.10 mph61%29.74 "Hg2 mi
4:55 AM75 °FPassing clouds.9 mph65%29.74 "Hg2 mi
4:25 AM77 °FPassing clouds.9 mph57%29.74 "Hg2 mi
3:55 AM77 °FPassing clouds.9 mph57%29.74 "Hg2 mi
3:25 AM77 °FPassing clouds.8 mph57%29.74 "Hg2 mi
2:55 AM79 °FPassing clouds.8 mph54%29.74 "Hg2 mi
2:25 AM79 °FPassing clouds.9 mph54%29.74 "Hg2 mi
Weather by CustomWeather, © 2015

See weather overviewHow to use our weather pages